This demonstration page uses our WeatherBlox Daily Observations layout. Learn more.

Left ArrowRight Arrow

41.55636, -103.73856

Hourly Observations for November 28, 2019

Temp ( °F °C ) Dew Point ( °F °C ) Humidity (%) Winds ( mph kmh ) Pressure ( in mb ) Visibility ( mi km ) Precip ( " mm )
12:58 am 00:58 Mostly Cloudy 19 -7.1 13 -10.7 76 76 SSE 21 33 30.27 1025 10 16.0934 N/A
1:58 am 01:58 Mostly Cloudy 19 -7.1 13 -10.8 75 75 SE 15 24 30.26 1025 10 16.0934 N/A
2:58 am 02:58 Partly Cloudy 18 -7.9 12 -11.1 78 78 SE 16 26 30.26 1025 10 16.0934 N/A
3:58 am 03:58 Mostly Clear 17 -8.3 13 -10.8 82 82 SE 16 26 30.25 1024 10 16.0934 N/A
4:58 am 04:58 Mostly Cloudy 17 -8.2 14 -10 87 87 ESE 14 22 30.22 1023 10 16.0934 N/A
5:59 am 05:59 Cloudy 19 -7.2 16 -9 87 87 SSE 21 33 30.21 1023 10 16.0934 N/A
6:58 am 06:58 Cloudy 19 -7.1 16 -8.9 87 87 SSE 20 31 30.18 1022 8 12.87472 N/A
7:58 am 07:58 Cloudy 20 -6.6 17 -8.3 88 88 SSE 18 30 30.17 1022 10 16.0934 N/A
8:58 am 08:58 Mostly Cloudy 21 -5.9 18 -7.8 87 87 SE 16 26 30.16 1021 10 16.0934 N/A
9:58 am 09:58 Mostly Cloudy 22 -5.8 18 -7.6 87 87 SSE 20 31 30.12 1020 10 16.0934 N/A
10:58 am 10:58 Mostly Cloudy 22 -5.7 18 -7.6 87 87 SSE 31 50 30.09 1019 10 16.0934 N/A
11:58 am 11:58 Mostly Cloudy 21 -6 18 -7.8 87 87 SE 18 30 30.09 1019 10 16.0934 N/A
12:58 pm 12:58 Cloudy 22 -5.7 19 -7.1 90 90 SE 15 24 30.12 1020 10 16.0934 N/A
1:58 pm 13:58 Cloudy 22 -5.5 20 -6.7 91 91 SE 9 15 30.11 1020 10 16.0934 N/A
2:58 pm 14:58 Cloudy 24 -4.3 22 -5.6 91 91 SE 10 17 30.08 1019 10 16.0934 N/A
3:58 pm 15:58 Windy with Snow Showers Likely 26 -3.3 24 -4.7 90 90 SSE 20 31 30.07 1018 10 16.0934 N/A
4:58 pm 16:58 Cloudy with Light Snow Showers 27 -2.8 25 -4.1 91 91 SE 14 22 30.07 1018 7 11.26538 N/A
5:58 pm 17:58 Cloudy with Light Snow Showers 28 -2.1 26 -3.5 90 90 SSE 18 30 30.06 1018 10 16.0934 0.01 0.254
6:58 pm 18:58 Cloudy 29 -1.9 26 -3.3 90 90 SSE 17 28 30.05 1018 10 16.0934 N/A
7:58 pm 19:58 Cloudy 29 -1.6 26 -3.2 89 89 SSE 17 28 30.02 1017 10 16.0934 N/A
8:58 pm 20:58 Cloudy 30 -1.3 26 -3.2 87 87 S 24 39 29.99 1016 10 16.0934 N/A
9:59 pm 21:59 Cloudy 29 -1.5 27 -3 90 90 SSE 16 26 29.99 1016 10 16.0934 N/A
10:58 pm 22:58 Cloudy 29 -1.4 28 -2.5 92 92 S 18 30 30.01 1016 10 16.0934 N/A
11:58 pm 23:58 Cloudy with Light Snow 29 -1.8 28 -2.3 96 96 SSE 14 22 30.04 1017 8 12.87472 N/A

Powered by AerisWeather